Pine Bluffs Muni, Pine Bluffs, WY

1:49 PM MDT on June 25, 2017 (GMT -0600)
Pine Bluffs Muni, Pine Bluffs

Weather History for K82V - April, 2014

Change the Weather History Date:

Wednesday, April 23, 2014

  Actual Average (KCYS) Record (KCYS)
Temperature  
Mean Temperature 53 °F -  
Max Temperature 64 °F 59 °F 79 °F (2012)
Min Temperature 42 °F 33 °F 11 °F (1873)
Degree Days  
Heating Degree Days 12    
Growing Degree Days 3 (Base 50)    
Moisture  
Dew Point 27 °F    
Average Humidity 41    
Maximum Humidity 76    
Minimum Humidity 18    
Precipitation  
Precipitation 0.00 in - - ()
Sea Level Pressure  
Sea Level Pressure 29.69 in    
Wind  
Wind Speed 16 mph (WNW)    
Max Wind Speed 33 mph    
Max Gust Speed 46 mph    
Visibility 10 miles    
Events      
Averages and records for this station are not official NWS values.
T = Trace of Precipitation, MM = Missing Value Source: NWS Daily Summary

Daily Weather History Graph

Daily Weather History Graph

Search for Another Location

Airport or City:

Trip Planner

Search our weather history database for the weather conditions in past years. The results will help you decide how hot, cold, wet, or windy it might be!

Date:

Astronomy

Apr. 23, 2014 Rise Set
Actual Time 6:05 AM MDT 7:45 PM MDT
Civil Twilight 5:35 AM MDT 8:14 PM MDT
Nautical Twilight 5:00 AM MDT 8:49 PM MDT
Astronomical Twilight 4:22 AM MDT 9:27 PM MDT
Moon 2:41 AM MDT (4/23) 1:53 PM MDT (4/23)
Length of Visible Light 14h 38m
Length of Day
13h 40m
Waning Crescent, 34% of the Moon is Illuminated
Apr 23
Waning Crescent
Apr 29
New
May 6
First Quarter
May 14
Full
May 21
Last Quarter

Hourly Weather History & Observations

Time (MDT) Temp. Windchill Dew Point Humidity Pressure Visibility Wind Dir Wind Speed Gust Speed Precip Events Conditions
12:15 AM 51.8 °F - 37.4 °F 58% 29.63 in 10.0 mi SSW 9.2 mph - N/A   Clear
12:35 AM 51.8 °F - 39.2 °F 62% 29.62 in 10.0 mi SSW 9.2 mph - N/A   Clear
12:55 AM 51.8 °F - 39.2 °F 62% 29.62 in 10.0 mi SSW 10.4 mph - N/A   Clear
1:15 AM 51.8 °F - 39.2 °F 62% 29.61 in 10.0 mi SSW 10.4 mph - N/A   Clear
1:35 AM 50.0 °F - 39.2 °F 66% 29.61 in 10.0 mi SSW 12.7 mph - N/A   Clear
1:55 AM 50.0 °F - 39.2 °F 66% 29.61 in 10.0 mi SSW 11.5 mph - N/A   Clear
2:15 AM 50.0 °F - 39.2 °F 66% 29.60 in 10.0 mi SSW 9.2 mph - N/A   Clear
2:35 AM 46.4 °F 42.4 °F 39.2 °F 76% 29.59 in 10.0 mi SSW 8.1 mph - N/A   Clear
2:55 AM 46.4 °F 45.2 °F 37.4 °F 71% 29.59 in 10.0 mi SW 3.5 mph - N/A   Clear
3:15 AM 46.4 °F 41.1 °F 37.4 °F 71% 29.58 in 10.0 mi SSW 11.5 mph - N/A   Clear
3:35 AM 48.2 °F - 37.4 °F 66% 29.58 in 10.0 mi WSW 4.6 mph - N/A   Clear
3:55 AM 48.2 °F - 37.4 °F 66% 29.57 in 10.0 mi SSW 10.4 mph - N/A   Clear
4:15 AM 48.2 °F - 37.4 °F 66% 29.57 in 10.0 mi SSW 10.4 mph - N/A   Scattered Clouds
4:35 AM 46.4 °F 41.5 °F 37.4 °F 71% 29.56 in 10.0 mi SSW 10.4 mph - N/A   Scattered Clouds
4:55 AM 46.4 °F 44.3 °F 37.4 °F 71% 29.56 in 10.0 mi West 4.6 mph - N/A   Clear
5:15 AM 48.2 °F - 37.4 °F 66% 29.57 in 10.0 mi WSW 5.8 mph - N/A   Clear
5:35 AM 44.6 °F 41.4 °F 37.4 °F 76% 29.57 in 10.0 mi WSW 5.8 mph - N/A   Clear
5:55 AM 42.8 °F - 35.6 °F 76% 29.59 in 10.0 mi Calm Calm - N/A   Clear
6:15 AM 44.6 °F - 35.6 °F 71% 29.59 in 10.0 mi Calm Calm - N/A   Clear
6:35 AM 42.8 °F 40.1 °F 35.6 °F 76% 29.61 in 10.0 mi NW 4.6 mph - N/A   Clear
6:55 AM 46.4 °F 40.1 °F 37.4 °F 71% 29.62 in 10.0 mi NW 15.0 mph 19.6 mph N/A   Clear
7:15 AM 46.4 °F 40.1 °F 35.6 °F 66% 29.63 in 10.0 mi NW 15.0 mph 20.7 mph N/A   Clear
7:35 AM 46.4 °F 38.7 °F 33.8 °F 62% 29.63 in 10.0 mi NW 20.7 mph 25.3 mph N/A   Clear
7:55 AM 46.4 °F 39.2 °F 32.0 °F 57% 29.63 in 10.0 mi NW 18.4 mph 27.6 mph N/A   Clear
8:15 AM 50.0 °F - 33.8 °F 54% 29.63 in 10.0 mi WNW 24.2 mph 32.2 mph N/A   Clear
8:35 AM 51.8 °F - 32.0 °F 47% 29.63 in 10.0 mi WNW 27.6 mph 35.7 mph N/A   Clear
8:55 AM 53.6 °F - 32.0 °F 44% 29.62 in 10.0 mi WNW 27.6 mph 32.2 mph N/A   Clear
9:15 AM 57.2 °F - 32.0 °F 38% 29.62 in 10.0 mi WNW 24.2 mph 38.0 mph N/A   Clear
9:35 AM 59.0 °F - 32.0 °F 36% 29.62 in 10.0 mi West 32.2 mph 40.3 mph N/A   Clear
9:55 AM 60.8 °F - 32.0 °F 34% 29.62 in 10.0 mi WNW 29.9 mph 34.5 mph N/A   Clear
10:15 AM 62.6 °F - 30.2 °F 30% 29.62 in 10.0 mi West 33.4 mph 42.6 mph N/A   Clear
10:35 AM 62.6 °F - 28.4 °F 27% 29.62 in 10.0 mi West 33.4 mph 46.0 mph N/A   Clear
10:55 AM 62.6 °F - 30.2 °F 30% 29.62 in 10.0 mi WNW 31.1 mph 40.3 mph N/A   Clear
11:15 AM 62.6 °F - 30.2 °F 30% 29.63 in 10.0 mi WNW 29.9 mph 38.0 mph N/A   Clear
11:35 AM 64.4 °F - 28.4 °F 26% 29.63 in 10.0 mi WNW 31.1 mph 39.1 mph N/A   Clear
12:15 PM 64.4 °F - 28.4 °F 26% 29.64 in 10.0 mi WNW 32.2 mph 40.3 mph N/A   Clear
12:35 PM 64.4 °F - 28.4 °F 26% 29.65 in 10.0 mi West 26.5 mph 43.7 mph N/A   Clear
12:55 PM 64.4 °F - 28.4 °F 26% 29.65 in 10.0 mi WNW 31.1 mph 39.1 mph N/A   Clear
1:15 PM 64.4 °F - 26.6 °F 24% 29.65 in 10.0 mi WNW 29.9 mph 42.6 mph N/A   Clear
1:55 PM 62.6 °F - 24.8 °F 24% 29.65 in 10.0 mi WNW 28.8 mph 36.8 mph N/A   Mostly Cloudy
2:15 PM 62.6 °F - 24.8 °F 24% 29.65 in 10.0 mi WNW 28.8 mph 36.8 mph N/A   Scattered Clouds
2:35 PM 60.8 °F - 26.6 °F 27% 29.65 in 10.0 mi NW 26.5 mph 35.7 mph N/A   Mostly Cloudy
2:55 PM 59.0 °F - 26.6 °F 29% 29.66 in 10.0 mi NW 28.8 mph 36.8 mph N/A   Overcast
3:15 PM 59.0 °F - 26.6 °F 29% 29.66 in 10.0 mi NNW 26.5 mph 32.2 mph N/A   Mostly Cloudy
3:35 PM 59.0 °F - 24.8 °F 27% 29.68 in 10.0 mi NW 26.5 mph 34.5 mph N/A   Mostly Cloudy
3:55 PM 55.4 °F - 23.0 °F 29% 29.69 in 10.0 mi NNW 20.7 mph 31.1 mph N/A   Overcast
4:15 PM 55.4 °F - 24.8 °F 31% 29.70 in 10.0 mi NNW 19.6 mph 29.9 mph N/A   Overcast
4:35 PM 53.6 °F - 23.0 °F 30% 29.72 in 10.0 mi NNW 23.0 mph 28.8 mph N/A   Overcast
4:55 PM 53.6 °F - 23.0 °F 30% 29.73 in 10.0 mi NNW 21.9 mph 27.6 mph N/A   Overcast
5:15 PM 53.6 °F - 23.0 °F 30% 29.73 in 10.0 mi NNW 23.0 mph 32.2 mph N/A   Overcast
5:35 PM 53.6 °F - 21.2 °F 28% 29.74 in 10.0 mi NNW 21.9 mph 29.9 mph N/A   Overcast
5:55 PM 53.6 °F - 19.4 °F 26% 29.75 in 10.0 mi NNW 25.3 mph 31.1 mph N/A   Overcast
6:15 PM 53.6 °F - 17.6 °F 24% 29.76 in 10.0 mi NNW 23.0 mph 28.8 mph N/A   Overcast
6:35 PM 53.6 °F - 17.6 °F 24% 29.76 in 10.0 mi NW 24.2 mph 33.4 mph N/A   Overcast
6:55 PM 51.8 °F - 12.2 °F 21% 29.77 in 10.0 mi NNW 20.7 mph 31.1 mph N/A   Overcast
7:15 PM 51.8 °F - 12.2 °F 21% 29.79 in 10.0 mi NW 19.6 mph 27.6 mph N/A   Overcast
7:35 PM 51.8 °F - 8.6 °F 18% 29.80 in 10.0 mi NNW 21.9 mph 28.8 mph N/A   Overcast
7:55 PM 50.0 °F - 8.6 °F 19% 29.81 in 10.0 mi NNW 25.3 mph 31.1 mph N/A   Overcast
8:15 PM 50.0 °F - 8.6 °F 19% 29.82 in 10.0 mi NW 26.5 mph 36.8 mph N/A   Overcast
8:35 PM 50.0 °F - 10.4 °F 20% 29.84 in 10.0 mi NNW 18.4 mph 25.3 mph N/A   Overcast
8:55 PM 48.2 °F - 10.4 °F 22% 29.86 in 10.0 mi NNW 17.3 mph 21.9 mph N/A   Overcast
9:15 PM 48.2 °F - 10.4 °F 22% 29.86 in 10.0 mi NW 19.6 mph 25.3 mph N/A   Overcast
9:35 PM 46.4 °F 38.5 °F 10.4 °F 23% 29.87 in 10.0 mi NW 21.9 mph 28.8 mph N/A   Overcast
9:55 PM 48.2 °F - 8.6 °F 20% 29.86 in 10.0 mi NW 26.5 mph 33.4 mph N/A   Overcast
10:15 PM 46.4 °F 38.5 °F 8.6 °F 22% 29.86 in 10.0 mi NW 21.9 mph 28.8 mph N/A   Scattered Clouds
10:35 PM 46.4 °F 38.1 °F 10.4 °F 23% 29.87 in 10.0 mi WNW 24.2 mph 32.2 mph N/A   Clear
10:55 PM 46.4 °F 38.3 °F 8.6 °F 22% 29.88 in 10.0 mi WNW 23.0 mph 33.4 mph N/A   Clear
11:15 PM 46.4 °F 37.4 °F 8.6 °F 22% 29.90 in 10.0 mi NW 28.8 mph 34.5 mph N/A   Clear
11:35 PM 44.6 °F 36.6 °F 8.6 °F 23% 29.92 in 10.0 mi NW 19.6 mph 33.4 mph N/A   Clear
11:55 PM 44.6 °F 38.4 °F 19.4 °F 37% 29.93 in 10.0 mi NW 12.7 mph - N/A   Clear